Location: Unspecified
(43.4680°N, 87.1740°E)
Time: 19:13:16
(UTC+00:00)

Cosmos 1340 Rocket - Pass Details

Date: 17 January 2020
Orbit: 530 x 558 km, 81.2° (Epoch: 27 February)

Event Time Altitude Azimuth Distance (km) Brightness Sun altitude
Rises 12:06:55 0° 358° (N) 2,689 6.2 -11.6°
Reaches altitude 10° 12:09:13 10° 8° (N) 1,796 5.2 -12.0°
Maximum altitude 12:12:51 34° 74° (ENE) 900 3.4 -12.7°
Drops below altitude 10° 12:16:28 10° 141° (SE) 1,795 5.2 -13.3°
Sets 12:18:46 0° 150° (SSE) 2,687 6.2 -13.7°
